Regional Weather Roundup
Issued by NWS State College, PA

Home | Current Version | Previous Version | Text Only | Print | Product List | Glossary On
Versions: 1 2 3 4 5 6 7 8 9 10 11 12 13 14 15 16 17 18 19 20 21 22 23 24 25 26 27 28 29 30 31 32 33 34 35 36 37 38 39 40 41 42 43 44 45 46 47 48 49 50
000
ASUS41 KCTP 270303
RWRCTP

REGIONAL WEATHER ROUNDUP
NATIONAL WEATHER SERVICE STATE COLLEGE PA
1100 PM EDT FRI AUG 26 2016

Note: "fair" indicates few or no clouds below 12,000 feet with no
significant weather and/or obstructions to visibility.

* = STATION THAT DOES NOT REPORT PRECIPITATION /E.G. RAIN...SNOW...ETC/
    THUNDER OR FOG.

PAZ002>004-007>009-013>016-020>023-029>032-270400-
WESTERN PENNSYLVANIA

CITY           SKY/WX    TMP DP  RH WIND       PRES   REMARKS
ERIE           CLEAR     67  62  84 S5        30.17R
MEADVILLE      CLEAR     66  59  78 CALM      30.20R
FRANKLIN*        N/A     66  61  82 CALM      30.21S
NEW CASTLE     FAIR      65  62  90 CALM      30.19R
BEAVER COUNTY  NOT AVBL
BUTLER*        NOT AVBL
PITTSBURGH INT PTCLDY    74  61  63 CALM      30.17R
PITTSBURGH     CLEAR     77  59  53 CALM      30.17R
INDIANA*       PTCLDY    66  64  94 CALM      30.22R
LATROBE        CLEAR     68  68 100 CALM      30.19R
WASHINGTON CO* CLEAR     68  64  88 CALM      30.19R
$$

PAZ004>006-010>012-017>019-024>028-033>037-041-042-045-046-049>053-270400-
CENTRAL PENNSYLVANIA

CITY           SKY/WX    TMP DP  RH WIND       PRES   REMARKS
BRADFORD       CLEAR     60  60 100 SE3       30.23R
DUBOIS         CLEAR     66  61  84 CALM      30.20R
CLEARFIELD     CLEAR     69  65  86 CALM      30.20R
JOHNSTOWN      CLEAR     73  60  63 N5        30.23R
ALTOONA        CLEAR     65  64  97 CALM      30.19R
STATE COLLEGE  PTCLDY    71  64  78 CALM      30.16R
WILLIAMSPORT   CLEAR     72  65  78 NW3       30.12R
SELINSGROVE    CLEAR     68  68 100 CALM      30.12R
FT INDIANTOWN  CLEAR     69  65  89 CALM      30.11R
CAPITAL CITY   CLEAR     74  66  76 SW6       30.10R
HARRISBURG     CLEAR     76  71  85 N3        30.09R
YORK           CLEAR     68  66  93 CALM      30.11R
$$

PAZ038>040-043-044-047-048-054-055-060>062-067>071-270400-
EASTERN PENNSYLVANIA

CITY           SKY/WX    TMP DP  RH WIND       PRES   REMARKS
SCRANTON       CLEAR     70  64  81 E6        30.14R
MOUNT POCONO   CLEAR     65  59  81 NW3       30.17S
ALLENTOWN      CLEAR     73  63  70 W3        30.09S
QUAKERTOWN*    CLEAR     68  64  88 CALM      30.11R
READING        CLEAR     74  66  76 NW3       30.09R
LANCASTER      CLEAR     75  67  76 N5        30.10R
COATESVILLE    CLEAR     77  64  65 N5        30.12R
POTTSTOWN      CLEAR     74  66  76 CALM      30.11R
BLUE BELL      CLEAR     70  66  88 CALM      30.08R
DOYLESTOWN     CLEAR     78  65  63 N6        30.08S
WILLOW GROVE   NOT AVBL
NORTH PHILA    CLEAR     80  65  59 N3        30.08S
PHILADELPHIA   CLEAR     82  65  56 N7        30.07R
$$




USA.gov is the U.S. government's official web portal to all federal, state and local government web resources and services.